Probability
0 0 0 0 0 0 0 0 0 0 0 0 0 0 0 0 0 0 0 0 0 0 0 0 0 0 0 0 0 0 0 0 0 0 0 0 0 0 0 0 0 0 0
0 0 0 0 0 0 0 0 0 0 0 0 0 0 0 0 0 0 0 0 0 0 0 0 0 0 0 0 0 0 0 0 0 0 0 0 0 0 0 0 0 0 0
0 0 0 0 0 0 0 0 0 0 0 0 0 0 0 0 0 0 0 0 0 0 0 0 0 0 0 0 0 0 0 0 0 0 0 0 0 0 0 0 0 0 0
0 0 0 0 0 0 0 0 0 0 0 0 0 0 0 0 0 0 0 0 0 0 0 0 0 0 0 0 0 0 0 0 0 0 0 0 0 0 0 0 0 0 0
0 0 0 0 0 0 0 0 0 0 0 0 0 0 0 0 0 0 0 0 0 0 0 0 0 0 0 0 0 0 0 0 0 0 0 0 0 0 0 0 0 0 0
0 0 0 0 0 0 0 0 0 0 0 0 0 0 0 0 0 0 0 0 0 0 0 0 0 0 0 0 0 0 0 0 0 0 0 0 0 0 0 0 0 0 0
0 0 0 0 0 0 0 0 0 0 0 0 0 0 0 0 0 0 0 0 0 0 0 0 0 0 0 0 0 0 0 0 0 0 0 0 0 0 0 0 0 0 0
0 0 0 0 0 0 0 0 0 0 0 0 0 0 0 0 0 0 0 0 0 0 0 0 0 0 0 0 0 0 0 0 0 0 0 0 0 0 0 0 0 0 0
0 0 0 0 0 0 0 0 0 0 0 0 0 0 0 0 0 0 0 0 0 0 0 0 0 0 0 0 0 0 0 0 0 0 0 0 0 0 0 0 0 0 0
0 0 0 0 0 0 0 0 0 0 0 0 0 0 0 0 0 0 0 0 0 0 0 0 0 0 0 0 0 0 0 0 0 0 0 0 0 0 0 0 0 0 0
0 0 0 0 0 0 0 0 0 0 0 0 0 0 0 0 0 0 0 0 0 0 0 0 0 0 0 0 0 0 0 0 0 0 0 0 0 0 0 0 0 0 0
0 0 0 0 0 0 0 0 0 0 0 0 0 0 0 0 0 0 0 0 0 0 0 0 0 0 0 0 0 0 0 0 0 0 0 0 0 0 0 0 0 0 0
0 0 0 0 0 0 0 0 0 0 0 0 0 0 0 0 0 0 0 0 0 0 0 0 0 0 0 0 0 0 0 0 0 0 0 0 0 0 0 0 0 0 0
0 0 0 0 0 0 0 0 0 0 0 0 0 0 0 0 0 0 0 0 0 0 0 0 0 0 0 0 0 0 0 0 0 0 0 0 0 0 0 0 0 0 0
0 0 0 0 0 0 0 0 0 0 0 0 0 0 0 0 0 0 0 0 0 0 0 0 0 0 0 0 0 0 0 0 0 0 0 0 0 0 0 0 0 0 0
0 0 0 0 0 0 0 0 0 0 0 0 0 0 0 0 0 0 0 0 0 0 0 0 0 0 0 0 0 0 0 0 0 0 0 0 0 0 0 0 0 0 0
0 0 0 0 0 0 0 0 0 0 0 0 0 0 0 0 0 0 0 0 0 0 0 0 0 0 0 0 0 0 0 0 0 0 0 0 0 0 0 0 0 0 0
0 0 0 0 0 0 0 0 0 0 0 0 0 0 0 0 0 0 0 0 0 0 0 0 0 0 0 0 0 0 0 0 0 0 0 0 0 0 0 0 0 0 0
0 0 0 0 0 0 0 0 0 0 0 0 0 0 0 0 0 0 0 0 0 0 0 0 0 0 0 0 0 0 0 0 0 0 0 0 0 0 0 0 0 0 0
0 0 0 0 0 0 0 0 0 0 0 0 0 0 0 0 0 0 0 0 0 0 0 0 0 0 0 0 0 0 0 0 0 0 0 0 0 0 0 0 0 0 0
0 0 0 0 0 0 0 0 0 0 0 0 0 0 0 0 0 0 0 0 0 0 0 0 0 0 0 0 0 0 0 0 0 0 0 0 0 0 0 0 0 0 0
0 0 0 0 0 0 0 0 0 0 0 0 0 0 0 0 0 0 0 0 0 0 0 0 0 0 0 0 0 0 0 0 0 0 0 0 0 0 0 0 0 0 0
0 0 0 0 0 0 0 0 0 0 0 0 0 0 0 0 0 0 0 0 0 0 0 0 0 0 0 0 0 0 0 0 0 0 0 0 0 0 0 0 0 0 0
0 0 0 0 0 0 0 0 0 0 0 0 0 0 0 0 0 0 0 0 0 0 0 0 0 0 0 0 0 0 0 0 0 0 0 0 0 0 0 0 0 0 0
0 0 0 0 0 0 0 0 0 0 0 0 0 0 0 0 0 0 0 0 0 0 0 0 0 0 0 0 0 0 0 0 0 0 0 0 0 0 0 0 0 0 0
0 0 0 0 0 0 0 0 0 0 0 0 0 0 0 0 0 0 0 0 0 0 0 0 0 0 0 0 0 0 0 0 0 0 0 0 0 0 0 0 0 0 0
Height
5593 5593 5592 5592 5592 5592 5592 5591 5591 5591 5591 5591 5591 5591 5592 5592 5592 5591 5591 5591 5590 5589 5588 5587 5586 5585 5584 5583 5582 5581 5581 5581 5583 5585 5584 5584 5583 5584 5584 5584 5585 5586 5586
5581 5581 5580 5580 5580 5580 5579 5579 5578 5578 5578 5578 5578 5578 5578 5578 5577 5577 5577 5576 5575 5574 5573 5572 5571 5570 5569 5568 5566 5565 5564 5564 5565 5567 5567 5567 5567 5566 5567 5567 5568 5568 5569
5569 5569 5568 5568 5568 5567 5567 5566 5566 5565 5565 5564 5564 5564 5564 5564 5563 5562 5562 5561 5560 5559 5558 5557 5555 5554 5553 5552 5550 5549 5548 5548 5548 5549 5550 5550 5549 5549 5550 5550 5550 5551 5552
5557 5557 5556 5556 5555 5555 5554 5553 5553 5552 5552 5551 5551 5550 5550 5549 5549 5548 5547 5546 5545 5543 5542 5541 5540 5539 5538 5536 5535 5534 5533 5532 5531 5531 5532 5533 5533 5532 5533 5534 5535 5535 5536
5545 5545 5544 5544 5543 5542 5541 5541 5540 5539 5539 5538 5537 5536 5536 5535 5534 5533 5532 5531 5530 5528 5527 5526 5525 5523 5522 5521 5520 5519 5517 5517 5516 5515 5515 5516 5516 5516 5516 5517 5518 5519 5520
5534 5533 5532 5531 5530 5529 5528 5527 5527 5526 5525 5524 5523 5522 5521 5520 5519 5518 5517 5516 5515 5514 5513 5511 5510 5508 5507 5506 5504 5503 5502 5501 5500 5499 5499 5499 5500 5499 5499 5500 5501 5503 5506
5522 5521 5520 5519 5518 5516 5515 5514 5513 5512 5511 5510 5509 5508 5507 5506 5505 5504 5503 5502 5501 5499 5498 5497 5495 5494 5492 5491 5489 5487 5486 5485 5484 5483 5483 5483 5483 5484 5484 5485 5485 5486 5489
5511 5510 5509 5507 5506 5504 5503 5501 5500 5499 5498 5496 5495 5494 5493 5492 5491 5489 5488 5487 5487 5485 5484 5482 5481 5479 5477 5476 5474 5473 5471 5470 5469 5468 5468 5468 5467 5467 5468 5469 5470 5472 5474
5500 5499 5497 5496 5494 5493 5491 5489 5487 5486 5484 5483 5481 5480 5479 5478 5477 5476 5474 5473 5473 5471 5469 5468 5466 5464 5463 5461 5460 5459 5458 5456 5454 5453 5453 5452 5452 5452 5452 5453 5455 5456 5458
5489 5487 5486 5484 5483 5481 5479 5477 5475 5473 5471 5470 5468 5467 5466 5465 5463 5462 5460 5460 5459 5457 5456 5454 5452 5450 5448 5446 5445 5444 5443 5442 5440 5439 5438 5437 5437 5437 5437 5438 5439 5440 5443
5477 5476 5474 5473 5471 5469 5467 5465 5463 5461 5459 5458 5456 5455 5453 5452 5450 5449 5447 5446 5445 5444 5442 5440 5438 5436 5434 5432 5430 5429 5428 5427 5425 5425 5424 5423 5423 5423 5423 5423 5424 5426 5428
5467 5465 5463 5461 5459 5457 5455 5453 5450 5448 5447 5445 5444 5443 5441 5439 5437 5435 5434 5432 5431 5430 5429 5427 5425 5423 5421 5419 5417 5415 5414 5412 5411 5410 5410 5409 5409 5409 5409 5409 5410 5411 5413
5455 5454 5452 5450 5448 5446 5444 5441 5439 5437 5435 5434 5432 5431 5429 5427 5425 5423 5421 5420 5418 5417 5415 5413 5412 5410 5408 5406 5404 5402 5400 5399 5398 5397 5396 5396 5395 5395 5395 5395 5396 5397 5399
5444 5442 5441 5439 5437 5434 5432 5430 5428 5425 5423 5422 5420 5419 5417 5415 5412 5410 5408 5407 5405 5404 5402 5401 5399 5397 5395 5393 5392 5390 5388 5386 5385 5384 5383 5382 5382 5382 5382 5382 5383 5384 5386
5433 5432 5430 5428 5425 5423 5421 5419 5417 5414 5412 5410 5409 5407 5405 5403 5401 5399 5397 5395 5393 5392 5390 5388 5387 5385 5383 5381 5379 5378 5376 5374 5372 5371 5371 5370 5370 5370 5369 5370 5370 5372 5374
5423 5421 5419 5417 5415 5412 5410 5408 5405 5403 5401 5399 5397 5395 5393 5391 5389 5387 5385 5384 5382 5380 5379 5377 5375 5373 5372 5370 5368 5366 5364 5362 5361 5359 5359 5358 5358 5358 5358 5358 5359 5360 5362
5412 5410 5408 5406 5404 5402 5399 5397 5395 5393 5390 5388 5386 5384 5382 5380 5378 5376 5374 5372 5371 5369 5367 5366 5364 5362 5360 5358 5356 5355 5353 5352 5350 5348 5348 5347 5347 5347 5347 5348 5349 5349 5351
5402 5400 5398 5396 5394 5391 5389 5387 5385 5383 5381 5378 5375 5373 5371 5369 5367 5365 5363 5362 5360 5358 5356 5354 5352 5350 5348 5346 5345 5343 5342 5341 5339 5338 5337 5337 5337 5337 5337 5338 5339 5340 5341
5392 5390 5388 5386 5383 5381 5379 5376 5374 5372 5370 5367 5365 5363 5360 5358 5356 5354 5352 5351 5349 5347 5344 5342 5340 5339 5337 5335 5334 5332 5331 5330 5329 5328 5327 5327 5327 5327 5328 5329 5330 5331 5332
5382 5380 5378 5375 5373 5371 5369 5366 5364 5361 5359 5357 5355 5352 5350 5348 5346 5344 5341 5339 5337 5335 5333 5331 5329 5328 5326 5325 5323 5322 5321 5320 5319 5318 5318 5318 5318 5319 5319 5320 5321 5322 5323
5372 5370 5367 5365 5363 5361 5358 5356 5353 5351 5349 5346 5344 5341 5339 5337 5335 5333 5331 5329 5326 5325 5323 5321 5319 5317 5316 5314 5313 5312 5311 5310 5310 5309 5309 5310 5310 5310 5311 5312 5312 5313 5315
5362 5360 5358 5355 5353 5350 5348 5345 5343 5340 5338 5336 5333 5331 5328 5326 5324 5322 5320 5318 5316 5314 5312 5311 5309 5307 5306 5304 5303 5302 5302 5301 5301 5301 5301 5301 5301 5302 5303 5304 5305 5306 5307
5353 5350 5348 5345 5343 5340 5338 5335 5333 5330 5328 5325 5323 5320 5318 5316 5313 5311 5310 5308 5306 5304 5303 5301 5299 5297 5296 5295 5293 5293 5292 5292 5292 5291 5292 5292 5293 5294 5295 5296 5297 5298 5299
5343 5341 5338 5335 5333 5330 5328 5325 5323 5320 5317 5315 5313 5310 5308 5305 5303 5301 5300 5298 5296 5295 5293 5291 5290 5288 5287 5285 5284 5283 5283 5282 5282 5282 5282 5283 5284 5285 5286 5288 5289 5290 5291
5333 5331 5328 5326 5323 5321 5318 5315 5313 5310 5308 5305 5303 5300 5298 5296 5294 5292 5290 5289 5287 5286 5284 5282 5281 5279 5278 5277 5276 5275 5274 5273 5273 5273 5273 5274 5275 5276 5278 5279 5281 5282 5283
5324 5321 5319 5316 5314 5311 5308 5306 5303 5301 5298 5296 5293 5291 5289 5287 5285 5283 5282 5280 5279 5277 5275 5274 5272 5271 5269 5268 5267 5266 5265 5265 5264 5264 5264 5265 5267 5268 5269 5271 5272 5274 5275
Wind_Speed
43 43 43 43 44 44 45 46 46 47 47 48 48 49 50 51 51 52 53 53 54 54 54 54 54 53 54 55 56 56 56 56 56 55 57 57 57 56 56 56 55 55 55
43 43 44 44 44 44 45 46 47 47 47 48 48 49 50 51 51 52 53 54 54 54 54 54 55 55 54 55 55 55 56 56 56 56 55 56 56 57 56 55 55 55 55
43 44 44 45 45 45 46 46 47 47 47 48 48 49 50 51 51 52 52 53 54 54 54 54 54 55 55 54 54 54 54 55 55 55 54 54 55 55 55 55 55 54 54
43 44 44 45 45 46 46 46 46 47 47 47 48 49 50 51 51 52 52 52 53 53 53 53 53 53 53 53 53 54 53 53 54 54 54 53 54 55 54 54 54 54 53
42 43 44 45 46 46 46 46 47 47 48 48 49 49 50 51 51 51 51 51 51 51 52 52 53 53 53 53 53 53 53 53 54 54 54 54 54 54 54 54 54 54 53
41 42 43 44 45 46 46 47 47 48 48 49 49 49 50 51 51 50 50 50 50 50 50 51 52 53 53 53 53 53 53 53 53 53 53 53 53 53 53 53 53 53 52
40 41 42 42 43 44 45 47 47 48 48 49 49 49 50 50 50 50 50 49 49 49 50 51 51 52 52 52 52 52 52 52 52 52 52 52 51 51 52 52 51 51 51
40 41 41 41 42 43 44 46 47 47 47 47 48 49 49 49 49 49 49 49 49 49 50 50 51 51 51 52 52 51 51 51 51 51 51 50 50 49 50 50 50 50 50
40 40 41 41 42 43 44 45 45 46 46 47 47 47 47 47 47 47 48 48 48 49 49 50 50 50 50 50 50 50 50 50 51 50 49 49 49 49 50 50 50 49 49
39 39 40 41 42 43 44 44 45 46 46 46 45 45 45 45 46 46 47 48 48 48 49 49 49 49 49 49 49 48 48 49 49 49 49 49 49 49 50 50 50 49 48
38 39 40 41 41 42 43 44 45 45 45 44 44 44 45 45 46 46 47 47 47 47 47 47 47 47 47 47 48 48 48 47 47 47 47 48 48 48 49 49 50 49 48
39 39 40 40 41 42 43 44 44 44 43 43 43 44 45 45 45 46 46 46 46 45 45 45 45 45 45 45 46 46 46 46 46 46 46 46 47 47 48 49 49 48 48
39 39 40 40 41 42 42 42 42 42 42 42 43 43 43 44 44 45 45 45 45 44 44 43 44 44 44 44 43 44 44 45 45 44 44 44 45 45 46 46 47 47 47
39 39 39 39 40 40 39 39 40 40 41 41 41 41 42 43 42 42 43 43 43 43 42 42 42 42 42 42 41 42 43 43 43 42 42 42 43 43 42 43 44 45 45
37 38 38 37 38 38 38 38 39 39 39 39 40 40 40 40 40 40 40 40 40 40 40 40 39 40 40 40 40 41 40 41 41 41 41 41 40 40 40 41 41 42 42
36 37 37 36 37 37 37 37 37 37 38 38 38 38 38 38 38 38 38 38 37 38 38 38 38 38 38 38 38 38 38 38 39 39 39 38 38 37 37 37 37 38 39
36 36 36 35 36 36 36 36 36 36 36 36 36 36 36 36 36 37 37 37 37 37 37 37 37 38 38 38 38 38 37 37 37 37 36 36 36 36 35 35 35 35 37
34 34 34 34 35 35 35 36 35 36 35 35 35 35 35 34 35 35 36 36 36 37 37 37 37 37 36 36 36 36 36 36 35 35 34 34 34 34 33 32 32 32 33
34 34 34 34 34 34 35 35 35 35 34 34 34 34 34 34 35 35 35 35 35 36 36 36 36 35 35 35 35 34 34 34 33 33 32 31 31 31 30 30 30 30 30
33 33 34 34 33 34 34 34 34 34 33 33 33 33 33 33 34 34 34 34 34 35 35 35 34 34 34 34 34 33 33 32 31 30 29 29 29 28 28 28 28 28 29
32 32 33 33 33 33 33 33 33 33 33 33 33 33 33 33 33 33 33 33 33 33 33 33 33 33 33 33 32 31 30 30 29 29 28 28 28 27 26 26 26 26 26
32 32 32 33 33 33 33 33 33 33 33 32 32 32 33 32 32 32 32 32 31 31 31 31 31 31 31 31 30 30 30 29 29 29 28 28 27 26 26 25 25 24 24
30 31 31 32 32 32 32 32 32 32 32 32 32 32 32 32 32 31 31 31 30 30 30 30 29 29 29 29 29 29 28 28 28 28 28 27 27 27 26 25 25 24 24
31 31 31 31 31 31 31 31 31 31 31 31 31 31 31 31 30 30 29 29 28 28 28 27 27 27 27 27 27 27 27 27 27 27 27 27 27 27 26 26 25 25 24
31 31 31 30 30 30 31 31 31 31 31 31 30 30 29 29 28 28 27 27 27 27 27 26 26 26 26 26 26 26 26 26 26 26 25 26 26 26 25 25 25 25 25
30 30 30 30 30 30 30 30 30 30 30 29 29 28 28 27 27 26 26 26 26 26 26 26 26 26 25 25 25 25 25 24 24 24 24 24 24 24 24 24 24 24 24
Wind_Direction
267 267 267 267 267 268 269 268 268 268 269 269 269 270 271 272 272 273 274 275 276 276 276 276 275 275 275 276 275 274 274 272 270 269 269 269 268 267 266 266 266 266 266
267 267 267 268 269 270 270 269 269 269 269 270 270 271 271 272 273 275 275 276 276 276 276 275 275 275 276 276 276 275 274 273 272 270 269 268 268 267 267 266 266 265 265
268 269 269 269 270 270 270 270 270 271 271 271 271 271 272 273 274 275 276 276 276 276 275 275 276 276 276 275 275 275 274 274 272 271 269 268 267 267 267 266 265 265 265
270 270 270 270 270 270 270 270 271 272 272 273 272 272 273 274 275 275 276 276 276 276 276 276 276 276 276 275 275 275 275 274 273 272 270 269 268 267 267 266 265 266 265
271 271 270 271 271 271 271 271 271 272 273 273 273 273 273 274 275 276 276 277 277 276 276 276 276 276 276 276 275 275 275 275 275 273 272 270 269 268 267 266 266 266 265
271 271 271 272 272 272 272 272 272 273 273 274 274 274 275 275 276 276 277 277 278 277 277 277 276 276 276 276 277 276 276 276 275 275 274 271 270 268 267 267 267 266 265
272 272 272 273 274 274 274 274 273 274 274 275 276 276 276 277 277 277 277 278 278 278 278 278 278 277 277 277 277 277 277 277 276 276 274 272 270 268 268 268 267 266 265
273 273 274 274 275 275 275 275 275 275 276 277 277 276 276 276 277 277 277 277 278 278 279 279 279 278 278 277 277 277 277 276 277 276 274 271 270 269 268 268 267 267 266
274 274 274 274 275 276 277 277 277 277 278 278 277 276 277 277 276 277 278 278 278 278 279 279 279 279 279 278 278 277 277 276 277 276 274 271 269 268 267 267 266 266 265
275 276 275 275 276 277 279 279 279 279 279 278 277 277 277 277 278 278 278 278 278 279 280 280 280 279 279 278 278 278 277 276 276 275 273 270 269 267 266 266 265 266 265
277 278 278 278 278 279 280 280 280 280 279 278 278 278 279 278 279 278 278 279 279 280 280 280 280 280 279 279 278 278 278 277 276 275 273 271 269 267 266 265 264 265 265
279 279 280 280 280 281 281 282 281 279 278 278 279 279 279 279 279 279 279 279 280 280 280 280 280 280 279 279 278 278 277 277 277 275 273 271 269 267 266 265 264 264 265
280 280 281 280 281 282 282 282 281 280 280 280 280 279 279 280 280 280 279 279 280 280 280 280 280 280 280 280 279 278 278 278 278 276 275 273 270 269 268 266 264 263 263
280 281 281 281 282 283 283 283 282 281 281 281 280 280 280 280 280 280 280 280 280 280 280 281 281 281 280 279 279 280 280 279 278 276 274 273 271 270 269 267 264 262 262
281 282 282 282 283 284 284 284 284 283 282 281 281 280 280 280 280 281 281 281 280 280 281 281 280 281 281 280 280 281 281 280 279 277 275 274 271 271 270 267 265 263 261
283 283 284 284 284 284 284 285 285 284 284 284 283 281 281 281 281 281 281 280 280 281 282 282 281 281 281 281 281 281 281 281 280 278 276 274 272 271 270 267 266 264 262
284 284 285 285 284 284 285 285 285 286 286 285 283 283 283 282 281 281 280 280 280 281 282 282 282 282 282 282 281 280 281 281 281 279 276 274 272 271 270 267 266 264 262
285 285 286 285 285 285 285 285 285 286 286 285 285 284 284 284 284 282 281 281 281 283 284 284 283 283 282 282 282 281 280 281 281 279 276 274 272 271 270 268 267 265 263
285 285 285 285 285 286 286 285 286 286 285 284 284 285 284 284 284 283 283 282 282 283 284 284 283 282 282 282 282 282 281 281 280 278 275 274 273 271 269 267 266 265 264
286 286 286 285 286 286 287 287 287 287 286 286 286 287 286 286 285 285 284 283 283 283 284 283 283 282 282 283 283 282 281 281 280 277 275 272 270 269 267 266 265 265 264
287 288 288 287 287 288 287 288 289 289 289 289 288 288 288 288 287 286 285 284 284 284 283 283 283 282 282 282 282 281 280 279 278 275 273 272 270 267 266 265 264 263 261
289 289 289 289 289 289 289 290 290 290 290 290 290 289 289 289 288 287 286 286 285 285 284 284 283 282 282 282 281 279 278 278 277 275 272 270 268 266 265 264 262 261 261
291 291 291 291 291 291 292 292 292 292 291 291 290 290 290 289 288 287 286 286 285 285 285 284 283 282 282 281 280 279 278 277 275 273 271 268 266 264 263 263 261 261 262
292 293 293 293 293 293 293 293 293 292 292 291 291 291 290 289 288 287 286 285 285 285 285 285 284 283 283 282 281 279 278 277 275 274 271 267 264 263 262 260 261 261 262
293 294 294 294 294 294 294 294 294 293 293 292 291 291 290 290 289 287 286 286 286 286 286 286 285 284 283 282 281 279 277 277 276 273 270 267 264 261 260 259 260 260 261
294 294 294 294 295 295 295 294 294 293 293 292 292 292 291 290 289 287 286 286 286 286 286 286 286 284 282 282 282 280 279 277 276 273 270 267 264 261 259 259 260 261 261